EN

Hourly Weather Paniha

Today, 6 March, Saturday

Time Temperature Precipitation Wind Pressure Humidity
00:00 -12°C° 0 mm 2 mps 745 mmHg 94%
01:00 -13°C° 0 mm 2 mps 745 mmHg 94%
02:00 -13°C° 0 mm 2 mps 746 mmHg 95%
03:00 -13°C° 0 mm 2 mps 746 mmHg 95%
04:00 -12°C° 0 mm 2 mps 746 mmHg 95%
05:00 -12°C° 0 mm 2 mps 746 mmHg 95%
06:00 -10°C° 0 mm 2 mps 746 mmHg 94%
07:00 -10°C° 0 mm 2 mps 746 mmHg 93%
08:00 -10°C° 0 mm 2 mps 747 mmHg 91%
09:00 -9°C° 0 mm 2 mps 747 mmHg 87%
10:00 -8°C° 0 mm 2 mps 747 mmHg 82%
11:00 -7°C° 0 mm 2 mps 747 mmHg 78%
12:00 -7°C° 0 mm 2 mps 746 mmHg 75%
13:00 -7°C° 0 mm 2 mps 746 mmHg 73%
14:00 -7°C° 0 mm 3 mps 745 mmHg 70%
15:00 -7°C° 0 mm 2 mps 745 mmHg 74%
16:00 -8°C° 0 mm 2 mps 744 mmHg 79%
17:00 -9°C° 0 mm 2 mps 744 mmHg 83%
18:00 -9°C° 0 mm 2 mps 743 mmHg 83%
19:00 -10°C° 0 mm 3 mps 743 mmHg 84%
20:00 -10°C° 0 mm 3 mps 742 mmHg 84%
21:00 -11°C° 0 mm 4 mps 741 mmHg 84%
22:00 -10°C° 0 mm 4 mps 740 mmHg 84%
23:00 -11°C° 0 mm 5 mps 739 mmHg 83%

Tomorrow, 7 March, Sunday

Time Temperature Precipitation Wind Pressure Humidity
00:00 -11°C° 0.2 mm 5 mps 738 mmHg 86%
01:00 -10°C° 0.2 mm 6 mps 736 mmHg 89%
02:00 -10°C° 0.2 mm 6 mps 735 mmHg 92%
03:00 -9°C° 0.5 mm 6 mps 734 mmHg 92%
04:00 -9°C° 0.5 mm 6 mps 732 mmHg 93%
05:00 -8°C° 0.5 mm 6 mps 731 mmHg 93%
06:00 -8°C° 0.4 mm 6 mps 730 mmHg 93%
07:00 -6°C° 0.4 mm 6 mps 729 mmHg 92%
08:00 -6°C° 0.4 mm 6 mps 728 mmHg 92%
09:00 -6°C° 0.8 mm 6 mps 728 mmHg 91%
10:00 -6°C° 0.8 mm 6 mps 728 mmHg 90%
11:00 -8°C° 0.8 mm 6 mps 728 mmHg 89%
12:00 -8°C° 0.3 mm 6 mps 728 mmHg 82%
13:00 -8°C° 0.3 mm 7 mps 728 mmHg 75%
14:00 -9°C° 0.3 mm 7 mps 728 mmHg 69%
15:00 -8°C° 0 mm 5 mps 729 mmHg 74%
16:00 -9°C° 0 mm 4 mps 729 mmHg 79%
17:00 -8°C° 0 mm 2 mps 729 mmHg 84%
18:00 -7°C° 0.1 mm 1 mps 729 mmHg 87%
19:00 -8°C° 0.1 mm 1 mps 729 mmHg 91%
20:00 -8°C° 0.1 mm 1 mps 729 mmHg 95%
21:00 -9°C° 0.1 mm 1 mps 729 mmHg 95%
22:00 -9°C° 0.1 mm 1 mps 729 mmHg 95%
23:00 -10°C° 0.1 mm 2 mps 729 mmHg 95%

Day after tomorrow, 8 March, Monday

Time Temperature Precipitation Wind Pressure Humidity
00:00 -12°C° 0.1 mm 2 mps 729 mmHg 93%
01:00 -12°C° 0.1 mm 2 mps 729 mmHg 92%
02:00 -13°C° 0.1 mm 2 mps 730 mmHg 90%
03:00 -15°C° 0 mm 3 mps 730 mmHg 90%
04:00 -15°C° 0 mm 3 mps 730 mmHg 90%
05:00 -16°C° 0 mm 3 mps 730 mmHg 89%
06:00 -16°C° 0.1 mm 4 mps 731 mmHg 90%
07:00 -15°C° 0.1 mm 4 mps 732 mmHg 90%
08:00 -14°C° 0.1 mm 5 mps 732 mmHg 90%
09:00 -13°C° 0.1 mm 5 mps 733 mmHg 89%
10:00 -13°C° 0.1 mm 5 mps 734 mmHg 87%
11:00 -12°C° 0.1 mm 5 mps 734 mmHg 86%
12:00 -12°C° 0.1 mm 5 mps 735 mmHg 85%
13:00 -12°C° 0.1 mm 5 mps 736 mmHg 84%
14:00 -12°C° 0.1 mm 5 mps 737 mmHg 82%
15:00 -11°C° 0 mm 4 mps 737 mmHg 85%
16:00 -12°C° 0 mm 4 mps 738 mmHg 87%
17:00 -14°C° 0 mm 4 mps 739 mmHg 89%
18:00 -14°C° 0 mm 4 mps 739 mmHg 90%
19:00 -15°C° 0 mm 4 mps 740 mmHg 90%
20:00 -16°C° 0 mm 4 mps 741 mmHg 91%
21:00 -16°C° 0 mm 3 mps 741 mmHg 92%
22:00 -17°C° 0 mm 3 mps 742 mmHg 92%
23:00 -18°C° 0 mm 3 mps 742 mmHg 93%

9 March, Tuesday

Time Temperature Precipitation Wind Pressure Humidity
00:00 -19°C° 0 mm 3 mps 743 mmHg 94%
01:00 -21°C° 0 mm 3 mps 743 mmHg 95%
02:00 -22°C° 0 mm 3 mps 744 mmHg 95%
03:00 -23°C° 0 mm 3 mps 744 mmHg 96%
04:00 -23°C° 0 mm 2 mps 745 mmHg 96%
05:00 -24°C° 0 mm 2 mps 745 mmHg 97%
06:00 -23°C° 0 mm 2 mps 746 mmHg 95%
07:00 -24°C° 0 mm 3 mps 746 mmHg 94%
08:00 -24°C° 0 mm 3 mps 746 mmHg 92%
09:00 -21°C° 0 mm 2 mps 747 mmHg 89%
10:00 -19°C° 0 mm 2 mps 747 mmHg 86%
11:00 -18°C° 0 mm 2 mps 747 mmHg 83%
12:00 -17°C° 0 mm 2 mps 747 mmHg 81%
13:00 -16°C° 0 mm 2 mps 747 mmHg 80%
14:00 -15°C° 0 mm 2 mps 747 mmHg 78%
15:00 -16°C° 0 mm 2 mps 747 mmHg 82%
16:00 -15°C° 0 mm 1 mps 747 mmHg 86%
17:00 -15°C° 0 mm 1 mps 747 mmHg 90%
18:00 -17°C° 0 mm 1 mps 747 mmHg 91%
19:00 -18°C° 0 mm 1 mps 748 mmHg 93%
20:00 -19°C° 0 mm 1 mps 748 mmHg 95%
21:00 -23°C° 0 mm 2 mps 748 mmHg 95%
22:00 -24°C° 0 mm 2 mps 748 mmHg 96%
23:00 -24°C° 0 mm 2 mps 748 mmHg 96%

10 March, Wednesday

Time Temperature Precipitation Wind Pressure Humidity
00:00 -25°C° 0 mm 2 mps 749 mmHg 96%
01:00 -26°C° 0 mm 2 mps 749 mmHg 97%
02:00 -27°C° 0 mm 2 mps 749 mmHg 97%
03:00 -27°C° 0 mm 2 mps 749 mmHg 97%
04:00 -28°C° 0 mm 2 mps 750 mmHg 97%
05:00 -28°C° 0 mm 2 mps 750 mmHg 97%
06:00 -28°C° 0 mm 2 mps 751 mmHg 95%
07:00 -27°C° 0 mm 2 mps 751 mmHg 94%
08:00 -27°C° 0 mm 2 mps 752 mmHg 92%
09:00 -25°C° 0 mm 2 mps 752 mmHg 89%
10:00 -24°C° 0 mm 2 mps 752 mmHg 85%
11:00 -21°C° 0 mm 2 mps 753 mmHg 82%
12:00 -20°C° 0 mm 2 mps 753 mmHg 81%
13:00 -20°C° 0 mm 2 mps 753 mmHg 80%
14:00 -19°C° 0 mm 2 mps 753 mmHg 78%
15:00 -20°C° 0 mm 2 mps 753 mmHg 83%
16:00 -21°C° 0 mm 2 mps 753 mmHg 87%
17:00 -20°C° 0 mm 1 mps 753 mmHg 91%
18:00 -21°C° 0 mm 1 mps 753 mmHg 91%
19:00 -22°C° 0 mm 1 mps 753 mmHg 92%
20:00 -22°C° 0 mm 1 mps 753 mmHg 92%
21:00 -23°C° 0 mm 1 mps 753 mmHg 92%
22:00 -23°C° 0 mm 1 mps 754 mmHg 92%
23:00 -24°C° 0 mm 1 mps 754 mmHg 93%

11 March, Thursday

Time Temperature Precipitation Wind Pressure Humidity
00:00 -24°C° 0 mm 0 mps 754 mmHg 92%
01:00 -24°C° 0 mm 0 mps 754 mmHg 92%
02:00 -25°C° 0 mm 0 mps 754 mmHg 91%
03:00 -25°C° 0 mm 0 mps 754 mmHg 91%
04:00 -25°C° 0 mm 0 mps 754 mmHg 91%
05:00 -25°C° 0 mm 1 mps 754 mmHg 91%
06:00 -24°C° 0 mm 1 mps 754 mmHg 90%
07:00 -23°C° 0 mm 1 mps 754 mmHg 88%
08:00 -21°C° 0 mm 1 mps 754 mmHg 86%
09:00 -23°C° 0 mm 2 mps 754 mmHg 84%
10:00 -20°C° 0 mm 2 mps 754 mmHg 81%
11:00 -18°C° 0 mm 2 mps 753 mmHg 78%
12:00 -18°C° 0 mm 3 mps 753 mmHg 76%
13:00 -16°C° 0 mm 3 mps 753 mmHg 74%
14:00 -16°C° 0 mm 4 mps 752 mmHg 72%
15:00 -17°C° 0 mm 4 mps 751 mmHg 75%
16:00 -17°C° 0 mm 4 mps 751 mmHg 78%
17:00 -18°C° 0 mm 4 mps 750 mmHg 81%
18:00 -18°C° 0 mm 4 mps 749 mmHg 83%
19:00 -19°C° 0 mm 4 mps 749 mmHg 84%
20:00 -21°C° 0 mm 5 mps 748 mmHg 86%
21:00 -21°C° 0 mm 5 mps 747 mmHg 83%
22:00 -21°C° 0 mm 5 mps 746 mmHg 81%
23:00 -22°C° 0 mm 6 mps 746 mmHg 78%
Show more

We Need Your Consent

Meteoprog and our Service Providers may store and access personal data such as cookies, device identifiers or other similar technologies on your device and process such data to personalise content and ads, as well as provide social media features and to analyse the traffic.

  • Store and/or access information on your device

    Cookies, device identifiers or other information can be stored or accessed on your device for the purposes indicated above.

  • Personalised ads and content, ad and content measurement, audience insights, and products development

    Ads and content can be personalised based on a profile. More data can be added to better personalise ads and content. Ad and content performance can be measured. Insights about the audience who saw the ads and content can be derived. Such data can be used to develop or improve user’s experience, systems and software.

By clicking ‘I Agree’ you will allow the use of indicated cookies, device identifiers, web beacons or other similar technologies. Your settings can be changed in the browser on your device.

For certain purposes, legitimate interests may be relied on, rather than consent. You can read more about this in our Privacy and Cookie Policy.